Location: Tel Aviv
(32.0670°N, 34.7670°E)
Time: 06:27:30
(UTC+02:00)

Courier 1B - All Passes

Search period start: 29 November 2023 00:00
Search period end: 09 December 2023 00:00
Orbit: 962 x 1208 km, 28.3° (Epoch: 28 November)

Date Brightness Start Highest point End Pass type
(mag) Time Alt. Az. Time Alt. Az. Time Alt. Az.
29 Nov - 09:06:14 10° SSW 09:10:29 18° SSE 09:14:42 10° ESE daylight
29 Nov - 10:57:49 10° SW 11:03:53 43° SSE 11:09:59 10° E daylight
29 Nov - 12:51:14 10° WSW 12:57:37 64° S 13:04:10 10° E daylight
29 Nov - 14:45:05 10° W 14:51:26 53° SSW 14:58:06 10° ESE daylight
29 Nov - 16:39:32 10° W 16:45:06 27° SSW 16:50:55 10° SSE daylight
30 Nov - 08:13:54 10° S 08:16:52 13° SSE 08:19:48 10° ESE daylight
30 Nov - 10:04:21 10° SW 10:10:14 36° SSE 10:16:03 10° E daylight
30 Nov - 11:57:31 10° WSW 12:03:52 61° S 12:10:19 10° E daylight
30 Nov - 13:51:21 10° W 13:57:41 59° S 14:04:17 10° ESE daylight
30 Nov - 15:45:32 10° W 15:51:23 33° SSW 15:57:30 10° SE daylight
30 Nov - 17:42:17 10° SW 17:44:53 12° SSW 17:47:30 10° S visible
01 Dec - 09:11:00 10° SW 09:16:36 29° SSE 09:22:03 10° E daylight
01 Dec - 11:03:49 10° WSW 11:10:10 55° S 11:16:29 10° E daylight
01 Dec - 12:57:35 10° W 13:03:57 62° S 13:10:28 10° ESE daylight
01 Dec - 14:51:39 10° W 14:57:41 40° SSW 15:03:58 10° SE daylight
01 Dec - 16:47:08 10° WSW 16:51:11 17° SSW 16:55:21 10° S daylight
02 Dec - 08:17:48 10° SSW 08:22:56 23° SSE 08:27:56 10° ESE daylight
02 Dec - 10:10:09 10° WSW 10:16:27 49° SSE 10:22:39 10° E daylight
02 Dec - 12:03:49 10° W 12:10:13 64° S 12:16:40 10° E daylight
02 Dec - 13:57:49 10° W 14:03:59 47° SSW 14:10:20 10° ESE daylight
02 Dec - 15:52:39 10° WSW 15:57:30 22° SSW 16:02:31 10° SSE daylight
03 Dec - 07:24:53 10° SSW 07:29:17 18° SSE 07:33:33 10° ESE daylight
03 Dec - 09:16:31 10° SW 09:22:46 42° SSE 09:28:49 10° E daylight
03 Dec - 11:10:02 10° WSW 11:16:29 63° S 11:22:53 10° E daylight
03 Dec - 13:04:01 10° W 13:10:17 54° S 13:16:39 10° ESE daylight
03 Dec - 14:58:28 10° W 15:03:51 27° SSW 15:09:22 10° SSE daylight
04 Dec - 06:32:28 10° S 06:35:36 13° SSE 06:38:40 10° ESE daylight
04 Dec - 08:22:58 10° SW 08:29:04 35° SSE 08:34:57 10° E daylight
04 Dec - 10:16:15 10° WSW 10:22:46 60° S 10:29:07 10° E daylight
04 Dec - 12:10:12 10° W 12:16:34 59° S 12:22:56 10° ESE daylight
04 Dec - 14:04:28 10° W 14:10:11 34° SSW 14:16:03 10° SE daylight
04 Dec - 16:01:11 10° SW 16:03:34 12° SSW 16:05:59 10° S daylight
05 Dec - 07:29:31 10° SW 07:35:23 29° SSE 07:40:59 10° E daylight
05 Dec - 09:22:26 10° WSW 09:29:01 55° S 09:35:21 10° E daylight
05 Dec - 11:16:22 10° W 11:22:51 63° S 11:29:13 10° ESE daylight
05 Dec - 13:10:32 10° W 13:16:32 41° SSW 13:22:35 10° SE daylight
05 Dec - 15:06:01 10° WSW 15:09:56 17° SSW 15:13:55 10° S daylight
06 Dec - 06:36:15 10° SSW 06:41:41 23° SSE 06:46:52 10° ESE daylight
06 Dec - 08:28:40 10° WSW 08:35:17 49° SSE 08:41:35 10° E daylight
06 Dec - 10:22:29 10° W 10:29:06 64° S 10:35:30 10° E daylight
06 Dec - 12:16:38 10° W 12:22:51 48° SSW 12:29:03 10° ESE daylight
06 Dec - 14:11:31 10° WSW 14:16:19 22° SSW 14:21:10 10° SSE daylight
07 Dec - 05:43:16 10° SSW 05:47:57 18° SSE 05:52:29 10° ESE visible
07 Dec - 07:34:57 10° SW 07:41:33 42° SSE 07:47:47 10° E daylight
07 Dec - 09:28:36 10° WSW 09:35:20 63° S 09:41:47 10° E daylight
07 Dec - 11:22:44 10° W 11:29:10 55° S 11:35:27 10° ESE daylight
07 Dec - 13:17:19 10° W 13:22:42 28° SSW 13:28:05 10° SSE daylight
08 Dec - 04:50:48 10° S 04:54:13 14° SSE 04:57:32 10° ESE visible
08 Dec - 06:41:19 10° SW 06:47:47 35° SSE 06:53:54 10° E daylight
08 Dec - 08:34:42 10° WSW 08:41:34 60° S 08:48:04 10° E daylight
08 Dec - 10:28:49 10° W 10:35:27 60° S 10:41:49 10° ESE daylight
08 Dec - 12:23:13 10° W 12:29:04 35° SSW 12:34:51 10° SE daylight
08 Dec - 14:19:53 10° SW 14:22:22 12° SSW 14:24:52 10° S daylight
